Dewpoint
55 55 55 55 56 56 56 56 56 56 57 57 57 57 57 57 57 57 57 58 58 58 59 59 59 59 60 59 60 60 60 56 50 37 35 24 45 62 67 69 68 74 67 67 66 60 60 62 61 57 55 54 54 49 52 56 56 53 51 47 42 47 49 52 52 53 52 55 57 61 62 61 59 63 64 65 63 65 65 65 66 66 67 67 67 69 69 70
55 55 55 55 55 55 56 56 56 56 56 57 57 57 57 57 57 57 57 57 58 58 59 59 59 59 59 60 60 61 60 55 44 45 40 48 67 69 72 72 71 72 56 50 54 43 52 56 57 54 53 53 46 45 53 53 54 51 49 45 42 48 50 54 55 56 54 54 59 61 62 61 61 63 63 62 62 63 62 63 65 64 66 67 68 68 69 69
55 55 55 55 55 55 56 56 56 56 56 56 57 57 57 57 57 57 57 57 57 58 59 59 59 59 60 60 60 61 58 46 45 30 26 64 64 66 71 74 74 68 32 30 30 22 27 35 49 47 47 36 40 40 52 41 52 50 44 43 46 49 51 55 58 57 58 58 59 60 61 62 62 63 64 61 61 62 61 61 62 63 65 67 67 68 69 69
55 55 55 55 55 55 55 56 56 56 56 56 56 57 57 57 57 57 57 57 58 58 59 59 59 60 60 60 61 60 56 51 36 31 44 68 69 67 71 74 75 67 29 26 24 20 21 25 42 34 29 30 28 45 48 41 49 47 43 43 45 48 49 51 58 59 59 60 60 60 62 61 62 63 62 62 60 60 62 63 62 63 65 66 67 68 68 69
55 55 55 55 55 55 55 56 56 56 56 56 56 56 56 56 57 57 57 57 57 58 59 59 60 60 60 60 60 59 44 27 27 44 47 74 75 74 72 74 74 57 32 31 23 26 24 21 22 25 27 26 32 39 39 40 46 42 41 42 48 52 50 53 57 60 61 61 61 60 59 60 62 61 63 62 59 59 61 63 64 65 66 67 67 67 68 68
56 56 55 55 55 55 55 56 56 56 56 56 56 56 56 56 56 56 57 57 57 58 59 59 60 60 60 60 60 57 39 24 34 40 73 75 75 76 74 73 72 44 34 29 22 21 22 27 23 24 25 27 31 30 27 41 42 38 41 42 45 52 51 54 58 60 60 59 59 59 61 61 60 58 63 62 61 61 63 64 63 65 66 68 68 67 67 68
55 55 55 55 55 55 55 56 56 56 56 56 56 56 56 57 57 56 57 57 58 58 59 59 60 60 60 60 57 51 38 35 43 43 72 76 76 77 76 74 69 36 29 16 20 28 32 32 26 27 27 29 28 27 29 38 40 42 42 46 47 51 50 55 59 60 60 58 58 61 62 59 58 56 58 61 62 62 64 64 64 65 67 68 67 67 68 68
56 56 55 55 55 55 55 56 55 55 56 56 56 56 57 57 57 57 57 57 58 58 59 60 60 60 60 58 51 36 40 32 36 50 76 75 75 73 65 45 32 24 15 12 24 29 32 30 27 30 28 28 28 28 35 35 41 41 42 47 49 49 51 58 60 60 60 60 61 60 58 58 57 55 61 62 62 64 64 63 64 64 66 67 67 68 68 68
57 56 56 55 55 55 55 55 55 55 56 56 56 57 57 57 57 57 57 57 58 58 59 60 59 60 60 58 42 32 31 41 46 58 66 57 63 55 35 31 28 19 19 20 22 26 30 29 29 30 27 29 30 29 31 39 39 42 42 47 47 49 55 59 58 59 60 61 61 58 57 56 59 58 59 59 63 63 63 63 64 64 65 66 66 67 68 68
56 56 56 56 56 55 55 55 55 55 56 57 57 57 57 57 56 56 57 57 58 58 59 60 60 60 58 55 22 32 35 43 53 62 53 53 44 38 35 27 27 23 26 30 30 31 31 29 30 31 30 30 31 29 28 25 24 42 46 46 48 53 54 57 55 56 59 60 60 57 55 55 58 56 54 58 63 63 63 62 63 63 64 65 66 67 67 67
56 56 56 56 56 55 55 55 55 55 56 56 57 57 57 56 56 56 57 58 58 59 59 60 60 59 56 52 20 21 34 47 53 55 49 42 37 35 32 32 28 27 26 29 31 32 32 31 30 32 31 30 31 29 30 25 31 46 50 51 52 53 53 55 56 57 57 56 59 57 54 56 57 55 53 56 63 63 62 62 62 62 63 64 65 66 66 66
56 56 56 56 57 57 57 56 56 55 55 56 56 57 56 56 56 56 57 58 58 59 59 59 60 59 58 50 35 22 31 46 43 48 50 42 38 36 33 33 27 27 32 31 32 34 32 32 32 31 30 32 27 28 25 29 43 47 48 46 51 53 53 55 54 57 57 54 59 59 53 51 54 54 55 57 62 62 62 62 61 62 63 63 64 65 65 65
56 56 57 57 57 57 57 56 55 54 55 55 57 56 56 56 56 56 57 58 58 59 59 60 59 58 54 28 38 38 39 38 44 45 46 45 43 41 40 36 31 31 32 31 32 33 34 32 33 30 30 30 30 25 27 41 47 47 47 49 49 50 49 53 57 58 55 54 59 55 43 44 50 56 57 62 61 61 61 61 61 62 62 62 63 64 64 64
57 56 57 57 56 56 56 54 54 54 54 56 56 55 56 56 56 57 58 58 59 59 60 60 59 57 45 35 35 37 40 46 48 46 44 48 41 39 35 34 33 34 34 32 32 32 33 32 32 31 34 30 28 30 24 24 36 44 45 46 48 47 47 51 54 57 53 57 57 51 43 44 48 50 57 60 62 61 60 60 60 61 62 62 62 62 63 64
56 56 56 56 55 55 55 55 55 55 55 56 56 56 56 56 57 57 58 59 59 59 60 60 58 53 42 40 41 42 65 59 38 39 44 39 39 36 33 30 31 33 34 33 34 36 34 34 32 29 28 40 27 24 23 24 22 34 41 42 42 45 46 48 59 55 53 57 58 47 43 44 45 47 53 59 62 60 60 60 60 61 61 62 62 62 62 62
56 55 55 55 56 56 55 55 55 56 56 56 56 56 56 56 57 58 58 58 59 60 59 57 56 50 38 29 30 52 36 34 34 35 36 39 37 35 35 31 30 30 32 33 36 39 44 32 29 29 28 24 24 23 23 27 24 25 39 38 42 41 45 44 54 57 56 56 54 49 45 47 45 48 55 61 61 60 60 60 60 60 61 60 61 61 62 62
55 55 56 57 56 56 55 55 55 55 56 56 55 55 55 56 58 58 59 59 59 58 57 52 52 59 27 30 30 28 30 34 36 33 33 37 36 35 32 29 29 30 31 32 36 31 31 29 31 27 26 23 24 22 22 20 16 31 29 36 41 43 42 40 44 52 55 54 50 50 45 43 46 50 55 60 60 59 59 59 60 61 61 61 61 61 62 64
56 56 56 56 57 56 55 55 54 55 55 55 55 55 55 57 58 59 57 59 58 57 56 57 51 22 15 20 23 28 34 29 30 34 33 33 34 32 32 31 30 30 31 29 29 27 29 26 27 25 26 24 22 20 22 21 17 11 21 29 35 36 42 41 41 47 53 52 50 50 47 47 50 52 54 59 59 58 58 58 60 60 60 60 60 62 63 64
55 55 56 56 57 55 55 54 54 54 54 54 55 55 56 56 55 53 47 51 29 13 1 26 20 17 15 18 19 24 28 27 33 32 30 32 37 33 39 33 31 30 29 27 26 27 27 27 26 26 22 23 23 22 21 21 16 15 19 30 38 38 38 39 41 43 51 49 49 49 47 49 49 51 52 54 55 58 57 59 60 60 59 60 60 61 63 64
56 55 56 56 56 54 54 54 54 54 54 54 51 54 39 23 8 22 43 44 38 9 14 18 28 32 23 21 22 24 28 32 32 32 32 33 31 31 31 31 30 29 28 26 27 28 29 24 24 23 23 23 24 24 22 21 18 19 25 32 35 36 35 35 38 43 52 46 42 48 49 50 50 51 53 56 54 55 56 57 58 57 58 59 60 62 62 63
55 55 56 56 56 54 54 54 55 53 53 53 51 38 19 20 7 22 35 35 38 35 28 28 27 22 14 25 30 26 17 20 30 30 33 42 31 29 28 29 26 27 27 29 27 28 27 24 24 24 23 23 23 25 22 22 20 18 13 24 27 33 34 35 38 48 52 48 42 49 49 50 51 54 57 58 52 52 55 56 57 57 59 60 60 61 62 63
55 55 55 55 56 54 54 54 54 54 54 50 51 39 38 31 44 37 33 28 31 32 31 28 29 24 25 26 33 29 27 24 25 27 28 34 32 27 28 27 26 25 27 26 28 26 24 23 23 24 24 25 25 25 24 22 13 7 9 18 15 19 30 30 43 50 52 46 44 47 47 49 51 54 56 58 59 56 57 57 56 56 60 61 61 62 62 62
55 55 54 55 55 56 54 53 53 53 51 48 44 49 40 45 43 37 34 32 31 33 31 30 28 26 24 25 26 26 22 22 24 25 27 33 32 30 30 27 26 27 26 26 24 26 23 23 24 25 25 22 22 14 14 10 5 4 4 7 5 19 26 27 35 51 51 43 45 49 47 47 50 53 54 56 58 59 59 59 59 61 60 61 61 61 61 61
54 54 54 54 54 55 55 54 53 51 49 48 48 46 40 45 39 32 27 27 27 33 26 29 27 24 20 13 18 23 20 21 24 22 28 31 29 32 28 27 25 25 24 30 25 23 23 23 25 24 23 22 21 10 6 5 4 4 4 5 7 12 14 31 33 48 49 48 50 45 43 44 46 50 51 53 56 57 57 58 58 60 60 62 62 62 64 62
54 54 54 54 54 55 54 53 49 49 49 49 46 45 44 44 41 35 25 32 26 28 35 23 28 21 14 24 27 20 23 24 24 26 28 30 30 29 29 31 26 25 25 26 23 22 21 22 24 21 16 15 18 9 5 5 8 4 5 4 4 15 41 43 45 42 42 41 45 40 35 37 44 48 50 52 54 53 56 57 58 59 60 60 60 61 62 63
54 54 54 54 54 54 53 48 44 49 46 36 31 35 41 38 36 37 35 26 21 27 18 19 21 17 19 17 25 21 19 18 20 22 29 30 43 29 29 25 27 24 24 24 22 23 21 22 15 14 12 9 8 7 7 5 4 5 8 7 28 41 43 43 42 35 35 32 43 42 33 33 42 46 48 52 52 52 54 54 56 58 59 60 60 61 61 62
54 54 54 54 54 53 46 43 52 51 29 21 43 50 50 49 45 34 26 7 4 19 14 21 17 12 17 16 20 22 14 16 22 28 26 47 29 37 25 24 24 25 26 26 22 16 22 14 12 10 8 7 6 4 6 5 7 2 8 30 43 42 41 41 38 34 38 45 43 44 40 37 36 42 48 52 51 51 51 52 54 57 59 60 60 61 62 62
54 53 53 54 55 53 51 50 50 43 30 42 49 50 49 48 39 33 18 1 4 19 16 14 14 22 16 21 20 17 18 22 18 20 27 28 30 26 26 24 22 22 21 20 18 18 16 13 12 10 12 8 7 7 9 6 3 2 12 39 41 40 40 40 34 34 36 39 38 41 42 36 40 44 48 51 49 49 50 52 52 56 59 61 62 62 62 63
53 53 53 54 55 53 53 51 50 44 48 50 50 49 47 47 34 29 15 5 20 9 17 14 16 19 24 21 19 20 18 24 19 21 27 28 27 26 26 25 23 22 22 21 18 18 17 14 13 11 11 8 9 8 8 4 3 6 10 18 21 28 31 29 34 37 39 37 35 38 40 35 36 42 47 48 48 48 50 51 52 55 57 60 62 63 63 63
53 54 54 54 53 52 51 52 50 49 52 51 50 47 49 33 30 27 13 11 13 12 17 13 11 9 22 18 19 18 16 18 24 24 22 25 24 21 22 27 23 22 22 16 16 16 15 38 36 13 10 9 9 8 8 5 6 11 7 10 19 25 26 33 33 36 34 29 34 40 41 36 33 40 46 45 46 49 50 51 53 57 61 62 63 63 63 63
53 54 54 53 49 49 51 46 48 51 52 51 48 45 32 32 33 26 13 18 14 20 19 12 9 21 18 17 15 17 17 19 23 23 22 21 22 22 21 21 21 20 19 15 14 14 9 10 21 26 28 17 9 8 12 14 13 5 9 11 14 18 27 25 31 34 28 26 31 32 37 35 31 36 43 46 49 50 50 50 53 58 60 61 61 62 62 63
53 53 53 53 53 52 43 34 52 52 51 49 48 33 28 22 22 23 22 29 13 14 12 10 14 20 18 19 16 15 14 15 19 21 18 20 21 21 20 20 23 18 20 15 14 9 8 10 12 10 44 13 11 6 5 16 12 14 22 20 12 14 19 18 28 25 28 26 34 37 38 37 38 38 45 50 51 49 51 52 53 58 59 60 60 62 63 64
53 53 53 53 52 52 51 52 53 52 49 44 43 35 28 24 16 23 23 20 12 17 11 14 10 17 16 16 16 17 19 13 16 19 15 14 20 23 21 20 20 19 14 18 9 6 5 10 13 12 9 30 11 4 4 10 15 12 13 21 15 14 16 13 20 26 30 34 35 36 37 35 37 40 46 52 54 52 54 57 59 59 59 60 61 63 64 65
53 52 51 51 51 52 52 54 53 51 45 52 38 31 23 19 24 52 25 22 18 21 19 17 17 14 15 15 15 16 13 18 17 18 14 16 15 18 17 17 13 10 11 15 8 6 8 8 12 11 6 11 12 6 10 13 11 13 14 11 14 17 11 11 19 23 30 34 35 38 33 33 36 40 50 54 55 57 57 58 58 59 59 60 62 64 64 65
51 52 51 51 52 51 51 52 51 51 45 43 37 33 24 24 33 33 36 33 29 22 17 19 16 14 17 14 15 17 15 16 17 14 12 15 14 13 14 15 17 14 13 11 18 19 6 8 8 14 11 14 19 21 15 13 13 15 12 18 16 17 27 16 17 30 31 31 32 35 38 39 41 47 55 56 58 58 59 59 60 61 62 62 63 63 64 64
51 52 51 50 50 51 51 51 51 49 42 39 34 31 29 32 33 35 31 34 26 17 16 16 16 15 18 14 17 12 12 17 18 14 15 10 11 11 14 14 14 10 10 11 23 10 23 20 21 19 28 16 21 26 26 17 17 19 19 19 18 18 31 33 43 34 34 32 32 36 42 45 47 49 52 56 58 59 60 60 60 61 62 62 62 63 63 64
47 50 44 48 49 51 50 50 49 43 44 39 35 33 35 37 36 37 52 30 34 16 16 13 14 16 15 13 17 13 13 14 14 14 14 14 11 10 9 9 14 12 12 12 10 13 10 13 14 26 25 28 27 27 27 25 20 22 19 20 25 32 33 32 28 30 32 29 30 38 39 42 41 39 49 55 56 58 59 60 61 61 61 62 62 62 63 63
47 47 51 52 46 50 49 49 44 45 40 37 35 54 45 36 39 36 39 38 27 20 15 15 14 17 16 13 13 12 12 12 12 15 14 13 12 13 9 8 10 13 12 12 12 12 12 11 17 22 24 24 29 27 25 28 28 21 18 24 20 26 24 26 28 26 25 27 30 36 41 44 42 42 50 53 55 57 59 60 60 61 61 62 62 62 63 63
51 50 35 42 49 49 48 46 49 44 34 32 33 34 48 39 40 39 39 38 35 21 14 14 13 17 12 11 12 10 12 10 11 14 12 11 11 13 8 8 9 11 13 9 9 18 20 9 15 24 27 27 29 27 25 25 27 28 26 24 29 26 25 24 23 30 27 28 32 32 38 37 43 44 49 51 55 57 59 60 59 60 61 62 61 62 62 63
49 32 32 48 48 48 47 47 47 40 31 30 33 36 38 36 35 37 38 38 35 30 21 15 15 12 13 13 10 9 12 10 13 13 13 13 6 12 21 26 15 19 11 12 13 27 14 24 20 24 27 27 25 29 25 26 26 25 25 25 25 28 27 26 30 28 33 35 32 31 31 36 40 44 50 52 55 58 59 59 60 61 62 62 63 62 62 63
45 38 37 46 48 45 46 45 42 39 34 37 40 38 37 32 33 32 35 38 36 32 15 14 13 11 11 10 9 12 16 13 13 11 11 9 13 20 22 24 24 21 23 18 24 29 22 25 23 27 25 27 26 30 27 27 27 25 25 25 24 24 25 25 26 29 35 34 32 31 31 36 41 53 51 53 57 60 61 60 61 61 62 62 62 62 62 62
37 36 38 45 45 45 43 36 41 44 40 39 28 34 31 51 42 38 33 34 35 33 19 14 20 14 16 11 10 13 14 20 16 13 15 4 15 21 22 26 25 23 16 17 22 30 23 30 28 27 27 26 27 28 37 33 29 27 26 26 26 27 27 27 21 24 30 35 37 35 30 32 46 55 57 56 60 62 61 61 61 62 61 61 61 63 62 62
35 36 43 45 44 46 36 35 46 43 38 39 39 32 36 35 35 35 32 30 31 31 23 23 22 19 22 15 20 14 24 25 23 16 22 21 21 23 26 31 30 29 28 32 27 27 62 29 25 28 33 38 32 28 31 33 30 26 27 30 27 26 26 25 27 30 28 35 31 31 30 31 47 58 59 60 62 62 61 61 61 61 61 61 61 61 61 62
39 43 43 46 46 44 32 28 28 31 39 44 40 34 34 33 34 33 30 25 27 24 24 26 26 27 28 28 26 19 24 23 27 24 25 26 26 30 32 40 36 29 25 28 27 32 28 32 29 28 28 30 30 32 29 29 30 32 28 29 31 30 33 32 33 36 29 32 31 28 26 32 49 59 60 62 62 62 61 61 61 61 60 61 61 60 61 61
47 46 46 45 48 45 36 32 30 35 45 36 34 34 34 33 34 34 28 27 30 27 26 28 27 29 30 31 30 29 28 24 27 27 26 30 32 34 27 35 37 40 50 46 53 32 31 38 32 24 22 21 21 22 25 26 26 28 33 37 43 28 32 31 29 34 24 35 34 30 30 39 48 57 60 61 61 60 60 61 61 60 60 61 61 61 60 60
42 41 41 42 44 44 43 40 40 37 38 39 36 35 34 31 25 31 31 28 31 32 30 31 31 29 29 27 27 27 26 26 26 28 30 28 28 26 28 26 44 58 66 62 57 43 37 41 37 35 31 27 31 34 34 37 31 34 36 44 46 43 34 34 32 30 26 34 32 36 36 49 52 55 59 61 60 60 60 60 60 60 60 61 60 60 60 60
43 41 40 40 40 41 40 41 40 37 37 38 35 37 33 32 28 28 29 29 30 31 30 28 30 29 29 28 28 26 30 26 28 25 27 26 28 29 28 28 24 45 63 46 56 35 36 28 34 35 32 31 33 33 31 36 34 41 44 45 47 48 44 31 28 28 37 29 28 40 47 51 53 55 59 60 59 59 60 59 59 59 60 60 61 60 64 62
37 41 43 43 39 36 39 39 40 39 38 37 36 37 32 28 27 30 28 30 33 31 27 26 24 28 30 28 29 28 32 30 30 28 30 28 30 24 25 28 22 38 44 27 44 34 32 26 27 29 27 30 30 36 42 43 43 46 47 48 47 49 49 49 49 48 40 30 29 42 49 51 53 54 58 59 59 59 59 60 60 60 60 60 59 59 59 60
42 44 45 48 43 43 38 40 39 39 39 38 39 44 33 27 25 28 28 29 30 27 29 25 23 23 26 31 31 31 34 28 26 34 31 27 26 28 28 28 24 23 26 28 32 42 29 30 34 27 33 34 36 40 42 45 45 46 47 49 49 50 50 49 50 51 51 48 47 50 51 51 52 53 54 55 56 59 60 59 58 58 58 59 59 58 58 58
50 49 47 49 49 47 48 48 47 43 38 49 37 36 30 28 26 27 27 29 31 28 29 22 24 23 23 24 30 25 30 29 29 30 34 31 27 31 27 29 22 20 24 25 33 30 27 31 43 31 32 31 34 43 44 46 46 47 47 48 49 50 50 51 51 52 53 49 50 51 51 50 52 54 53 53 55 55 55 56 57 57 58 58 57 57 56 56
47 52 51 48 47 48 53 47 44 39 39 41 31 32 36 27 27 27 27 29 31 29 27 23 23 25 25 24 25 27 29 32 31 29 33 29 28 28 24 25 21 23 24 24 28 31 30 27 33 30 30 32 31 40 43 43 46 47 47 47 48 50 49 50 51 52 48 47 47 49 49 49 52 53 53 53 53 53 54 56 57 57 57 55 53 53 55 55
57 56 53 51 48 60 39 43 35 32 30 34 34 32 33 27 28 27 25 27 27 29 26 25 26 23 29 24 26 26 25 32 31 28 27 28 26 28 25 25 21 23 27 25 32 26 32 28 23 24 22 26 26 27 33 38 36 41 45 47 47 50 50 50 51 52 54 52 47 46 47 50 53 55 52 52 51 51 51 53 54 56 56 52 49 49 52 53